Date String (YYYY-MM-DD hh:mm:ss) UTC,Instrument flags,absolute air pressure of the measurement (hPa),sample flow rate (lpm),inlet stack bypass flow (lpm),air temperature of the measurement (°C),ambient temperature measured by the external sensor (°C),aerosol sample conditioner tube jacket temperature (°C),OPC LED temperature (°C),internal box temperature (°C),relative humidity of the measurement (%),span deviation,mass concentration of particles derived from Lorenz-Mie calculation of OPC scattering (μg/m³),mass concentration of particles derived from Lorenz-Mie calculation of OPC scattering (μg/m³),mass concentration of particles derived from Lorenz-Mie calculation of OPC scattering (μg/m³)
DateTimeUTC,F1_M11,P_M11,Q1_M11,Q2_M11,T1_M11,T2_M11,T3_M11,T4_M11,T5_M11,U1_M11,ZSPAN_M11,X2_M11,X0_M11,X1_M11
2024-04-24 20:00:00,SystemResetWarning,0826.9,5.00,000.00,025.6,025.1,000.0,033.7,027.5,028.6,0000.5,0009.91,0022.14,0008.29
2024-04-24 20:01:00,SystemResetWarning,0826.9,5.01,000.00,025.7,025.1,000.0,033.8,027.5,028.1,0000.7,0009.92,0022.51,0008.29
2024-04-24 20:02:00,SystemResetWarning,0826.9,4.98,000.00,025.5,023.7,000.0,033.8,026.7,028.1,0000.7,0009.98,0022.83,0008.35
2024-04-24 20:03:00,SystemResetWarning,0826.8,5.02,000.00,025.1,022.0,000.0,033.8,025.7,029.5,0000.4,0010.10,0023.62,0008.44
2024-04-24 20:04:00,SystemResetWarning,0826.8,5.00,000.00,024.8,021.7,000.0,033.8,025.5,029.3,0000.3,0010.16,0023.83,0008.49
2024-04-24 20:05:00,SystemResetWarning,0826.8,5.00,000.00,024.7,022.1,000.0,033.6,025.6,029.6,0000.1,0010.23,0023.53,0008.53
2024-04-24 20:06:00,SystemResetWarning,0826.8,5.00,000.00,024.7,022.5,000.0,033.5,026.0,029.4,0000.0,0010.27,0023.26,0008.57
2024-04-24 20:07:00,SystemResetWarning,0826.9,4.99,000.00,024.7,022.9,000.0,033.4,026.3,028.9,0000.3,0010.24,0022.91,0008.58
2024-04-24 20:08:00,SystemResetWarning,0826.9,5.00,000.00,024.8,023.2,000.0,033.4,026.5,028.5,0001.2,0010.18,0022.09,0008.52
2024-04-24 20:09:00,SystemResetWarning,0826.9,5.00,000.00,024.9,023.5,000.0,033.4,026.6,029.1,0001.2,0010.10,0020.60,0008.50
2024-04-24 20:10:00,SystemResetWarning,0826.9,5.01,000.00,024.9,023.8,000.0,033.3,026.8,028.7,0001.4,0010.00,0020.12,0008.49
2024-04-24 20:11:00,SystemResetWarning,0826.9,5.00,000.00,025.0,024.1,000.0,033.3,026.9,027.8,0001.6,0009.97,0020.92,0008.47
2024-04-24 20:12:00,SystemResetWarning,0826.9,4.99,000.00,025.1,024.3,000.0,033.4,027.0,027.9,0001.7,0009.92,0020.60,0008.43
2024-04-24 20:13:00,SystemResetWarning,0826.8,5.00,000.00,025.2,024.4,000.0,033.4,027.1,028.3,0001.7,0009.90,0020.41,0008.38
2024-04-24 20:14:00,SystemResetWarning,0826.9,5.00,000.00,025.2,024.6,000.0,033.4,027.2,027.7,0001.5,0009.84,0020.80,0008.33
2024-04-24 20:15:00,SystemResetWarning,0826.9,4.99,000.00,025.3,024.7,000.0,033.4,027.2,027.9,0001.7,0009.80,0020.98,0008.30
2024-04-24 20:16:00,SystemResetWarning,0826.9,5.01,000.00,025.4,024.8,000.0,033.5,027.3,027.7,0001.6,0009.84,0020.71,0008.28
2024-04-24 20:17:00,SystemResetWarning,0826.9,5.01,000.00,025.4,024.9,000.0,033.5,027.4,027.1,0001.8,0009.90,0021.34,0008.28
2024-04-24 20:18:00,SystemResetWarning,0826.9,5.01,000.00,025.5,025.0,000.0,033.6,027.4,026.5,0001.9,0010.03,0022.45,0008.33
2024-04-24 20:19:00,SystemResetWarning,0826.9,4.99,000.00,025.6,025.1,000.0,033.6,027.5,026.6,0001.5,0010.15,0022.66,0008.41
2024-04-24 20:20:00,SystemResetWarning,0826.9,5.00,000.00,025.6,025.1,000.0,033.6,027.6,026.7,0001.2,0010.18,0022.64,0008.46
2024-04-24 20:21:00,SystemResetWarning,0826.8,4.99,000.00,025.6,024.1,000.0,033.7,027.0,026.5,0001.0,0010.22,0022.66,0008.49
2024-04-24 20:22:00,SystemResetWarning,0826.8,5.00,000.00,025.1,022.0,000.0,033.7,025.8,027.3,0000.8,0010.31,0023.31,0008.54
2024-04-24 20:23:00,SystemResetWarning,0826.6,5.00,000.00,024.8,021.5,000.0,033.7,025.3,028.2,0000.4,0010.41,0023.32,0008.60
2024-04-24 20:24:00,SystemResetWarning,0826.6,5.01,000.00,024.6,021.9,000.0,033.6,025.5,027.1,0000.3,0010.41,0023.14,0008.62
2024-04-24 20:25:00,SystemResetWarning,0826.7,5.01,000.00,024.6,022.3,000.0,033.4,025.8,027.5,0000.6,0010.43,0022.12,0008.62
2024-04-24 20:26:00,SystemResetWarning,0826.6,4.99,000.00,024.7,022.7,000.0,033.4,026.2,027.5,0000.7,0010.46,0023.17,0008.64
2024-04-24 20:27:00,SystemResetWarning,0826.6,4.99,000.00,024.7,023.1,000.0,033.3,026.4,027.4,0001.1,0010.39,0023.75,0008.63
2024-04-24 20:28:00,SystemResetWarning,0826.6,5.00,000.00,024.8,023.4,000.0,033.3,026.6,027.2,0001.2,0010.30,0024.46,0008.60
2024-04-24 20:29:00,SystemResetWarning,0826.6,5.02,000.00,024.9,023.7,000.0,033.3,026.7,026.6,0001.5,0010.26,0025.84,0008.56
2024-04-24 20:30:00,SystemResetWarning,0826.6,4.99,000.00,024.9,024.0,000.0,033.3,026.8,026.4,0001.5,0010.24,0027.13,0008.51
2024-04-24 20:31:00,SystemResetWarning,0826.6,4.99,000.00,025.0,024.3,000.0,033.3,027.0,027.8,0001.6,0010.16,0028.25,0008.44
2024-04-24 20:32:00,SystemResetWarning,0826.6,5.00,000.00,025.1,024.4,000.0,033.3,027.1,027.5,0001.6,0010.18,0028.58,0008.41
2024-04-24 20:33:00,SystemResetWarning,0826.6,5.02,000.00,025.2,024.6,000.0,033.3,027.1,026.8,0001.8,0010.17,0027.81,0008.38
2024-04-24 20:34:00,SystemResetWarning,0826.6,4.99,000.00,025.3,024.7,000.0,033.4,027.2,025.8,0002.1,0010.12,0028.20,0008.34
2024-04-24 20:35:00,SystemResetWarning,0826.6,4.99,000.00,025.3,024.8,000.0,033.4,027.3,025.7,0002.3,0010.17,0030.93,0008.35
2024-04-24 20:36:00,SystemResetWarning,0826.6,5.01,000.00,025.4,024.9,000.0,033.5,027.4,026.0,0002.3,0010.19,0032.51,0008.37
2024-04-24 20:37:00,SystemResetWarning,0826.6,5.01,000.00,025.5,025.0,000.0,033.5,027.4,025.3,0002.4,0010.17,0031.30,0008.37
2024-04-24 20:38:00,SystemResetWarning,0826.6,5.00,000.00,025.6,025.1,000.0,033.6,027.5,025.0,0002.2,0010.11,0030.80,0008.36
2024-04-24 20:39:00,SystemResetWarning,0826.6,4.98,000.00,025.5,024.4,000.0,033.6,027.0,025.3,0002.0,0010.08,0030.29,0008.36
2024-04-24 20:40:00,SystemResetWarning,0826.5,5.00,000.00,025.1,022.4,000.0,033.7,025.8,026.0,0002.0,0010.03,0027.93,0008.35
2024-04-24 20:41:00,SystemResetWarning,0826.4,5.01,000.00,024.8,021.6,000.0,033.6,025.3,026.6,0002.1,0009.91,0026.87,0008.31
2024-04-24 20:42:00,SystemResetWarning,0826.4,5.01,000.00,024.6,022.0,000.0,033.5,025.5,025.9,0002.4,0009.98,0025.88,0008.32
2024-04-24 20:43:00,SystemResetWarning,0826.4,5.00,000.00,024.6,022.4,000.0,033.4,025.8,026.2,0002.5,0009.98,0025.56,0008.34
2024-04-24 20:44:00,SystemResetWarning,0826.4,5.00,000.00,024.6,022.8,000.0,033.3,026.2,025.9,0002.7,0009.94,0025.89,0008.34
2024-04-24 20:45:00,SystemResetWarning,0826.4,4.99,000.00,024.7,023.1,000.0,033.3,026.4,025.3,0002.8,0009.93,0025.66,0008.34
2024-04-24 20:46:00,SystemResetWarning,0826.4,4.99,000.00,024.8,023.5,000.0,033.2,026.5,024.9,0002.7,0009.87,0023.78,0008.35
2024-04-24 20:47:00,SystemResetWarning,0826.4,5.00,000.00,024.9,023.8,000.0,033.2,026.7,025.2,0002.7,0009.82,0022.93,0008.33
2024-04-24 20:48:00,SystemResetWarning,0826.4,5.01,000.00,024.9,024.0,000.0,033.2,026.8,024.5,0002.5,0009.74,0022.40,0008.30
2024-04-24 20:49:00,SystemResetWarning,0826.4,5.01,000.00,025.0,024.3,000.0,033.3,026.9,024.9,0002.5,0009.81,0021.95,0008.34
2024-04-24 20:50:00,SystemResetWarning,0826.4,5.00,000.00,025.1,024.5,000.0,033.3,027.1,024.3,0002.8,0009.89,0021.88,0008.38
2024-04-24 20:51:00,SystemResetWarning,0826.4,5.00,000.00,025.2,024.7,000.0,033.3,027.2,023.9,0002.7,0009.95,0022.30,0008.44
2024-04-24 20:52:00,SystemResetWarning,0826.4,4.99,000.00,025.3,024.8,000.0,033.3,027.3,023.6,0003.0,0010.07,0022.78,0008.52
2024-04-24 20:53:00,SystemResetWarning,0826.4,4.99,000.00,025.4,025.0,000.0,033.4,027.4,023.2,0003.3,0010.10,0024.00,0008.57
2024-04-24 20:54:00,SystemResetWarning,0826.3,5.00,000.00,025.4,025.1,000.0,033.4,027.4,023.7,0003.3,0010.10,0024.23,0008.58
2024-04-24 20:55:00,SystemResetWarning,0826.3,5.01,000.00,025.5,025.1,000.0,033.5,027.4,023.9,0003.2,0010.12,0023.47,0008.57
2024-04-24 20:56:00,SystemResetWarning,0826.2,5.00,000.00,025.3,023.5,000.0,033.6,026.5,024.2,0003.4,0010.12,0023.05,0008.58
2024-04-24 20:57:00,SystemResetWarning,0826.2,5.01,000.00,024.9,021.8,000.0,033.6,025.6,026.2,0003.7,0010.13,0022.24,0008.59
2024-04-24 20:58:00,SystemResetWarning,0826.1,5.02,000.00,024.7,021.8,000.0,033.5,025.4,026.2,0004.1,0010.09,0020.55,0008.59
2024-04-24 20:59:00,SystemResetWarning,0826.2,4.99,000.00,024.6,022.2,000.0,033.4,025.7,025.7,0004.3,0010.18,0021.78,0008.67
